GPS BIIF-1 (PRN 25)

Last updated on Mon Sep 21 2026 00:03:20 GMT+0000 (Coordinated Universal Time)

1 36585U 10022A 26262.93209208 -.00000006 00000+0 00000+0 0 9998 2 36585 54.2581 204.7475 0115957 55.8469 123.8181 2.00610250119492
UTC large
Height (km)
Speed (km/s)
/
Latitude / Longitude
Inclination (degrees)
Orbital Period (minutes)
Azimuth
Elevation
Range (km)
Doppler Factor

Next 0 passes for location: London (51.5072 / 0.1276)

No passes found over London.
GPS BIIF-1 (PRN 25)